Regional Weather Roundup
Issued by NWS Green Bay, WI

Home | Current Version | Previous Version | Graphics & Text | Print | Product List | Glossary Off
Versions: 1 2 3 4 5 6 7 8 9 10 11 12 13 14 15 16 17 18 19 20 21 22 23 24 25 26 27 28 29 30 31 32 33 34 35 36 37 38 39 40 41 42 43 44 45 46 47 48 49 50

000
ASUS43 KGRB 070100
RWRGRB

NORTH-CENTRAL AND NORTHEAST WISCONSIN REGIONAL WEATHER ROUNDUP
NATIONAL WEATHER SERVICE GREEN BAY WI
700 PM CST SAT FEB 06 2016

WIZ005-009-010>012-018-019-070200-
NORTH CENTRAL WISCONSIN

CITY           SKY/WX    TMP DP  RH WIND       PRES   REMARKS
IRONWOOD       CLOUDY    34  21  60 S12G18    29.80S
MANITOWISH WTR NOT AVBL
ARBOR VITAE    NOT AVBL
EAGLE RIVER    NOT AVBL
LAND O LAKES   NOT AVBL
RHINELANDER    CLOUDY    30  21  69 S10       29.89F
PHILLIPS       NOT AVBL
ANTIGO         NOT AVBL
TOMAHAWK       NOT AVBL
MERRILL        NOT AVBL
$$

WIZ013-073-070200-
NORTHEAST WISCONSIN

CITY           SKY/WX    TMP DP  RH WIND       PRES   REMARKS
IRON MOUNTAIN  CLOUDY    29  20  69 S9        29.92F
MARINETTE      CLOUDY    28  21  74 SW10      30.01S
$$

WIZ017-030-035>037-045-070200-
CENTRAL WISCONSIN

CITY           SKY/WX    TMP DP  RH WIND       PRES   REMARKS
MEDFORD        NOT AVBL
WAUSAU         CLOUDY    32  22  66 S14       29.93F
MOSINEE        PTCLDY    28  25  86 S10       29.96F
MARSHFIELD     MOCLDY    31  21  66 S14       29.93F
WISC RAPIDS    MOCLDY    31  22  69 S8        30.00F
STEVENS POINT  NOT AVBL
WAUPACA        NOT AVBL
SHAWANO        NOT AVBL
CLINTONVILLE   NOT AVBL
WAUTOMA        NOT AVBL
$$

WIZ038-039-048-051-070200-
FOX VALLEY

CITY           SKY/WX    TMP DP  RH WIND       PRES   REMARKS
NWS GREEN BAY  CLOUDY    30  24  78 S13       30.03F
APPLETON       CLOUDY    28  23  80 S10       30.01F
OSHKOSH        CLOUDY    29  23  78 S10       30.04F
FOND DU LAC    CLOUDY    30  25  81 S12       30.05F
$$

WIZ022-050-052-070200-
EAST CENTRAL WISCONSIN

CITY           SKY/WX    TMP DP  RH WIND       PRES   REMARKS
EPHRAIM        NOT AVBL
STURGEON BAY   CLOUDY    28  21  74 S9        30.04F
MANITOWOC      NOT AVBL
SHEBOYGAN        N/A     29  24  82 S12       30.06F
$$

LMZ563-521-522-541>543-070200-
LAKESHORE

STATION/POSITION TIME  TEMP    WIND        PRES    VSBY  WAVE
                       AIR SEA DIR/SP/G                  HT/PER
                 (UTC) (F)     (DEG/KT/KT) (MB)    (MI)  (FT/S)
SHEBOYGAN LKSHOR 0000   32     210/  9/ 10 1019.7F
KEWAUNEE LKSHORE 0000   30     200/  5/  7 1017.1F
ALGOMA MARINA    0041          220/  9/ 10   N/A
CHAMBERS ISLAND  0000   28     180/  7/ 13 1016.9F
MENOMINEE LKSHOR 0000   29     180/  8     1015.7F
$$



USA.gov is the U.S. government's official web portal to all federal, state and local government web resources and services.